Albogasio, Italy

2:07 PM CEST on August 17, 2017 (GMT +0200)
Albogasio

Weather History for 06770 - September, 2013

Change the Weather History Date:

Saturday, September 7, 2013

  Actual Average Record
Temperature  
Mean Temperature 72 °F -  
Max Temperature 82 °F 67 °F - ()
Min Temperature 62 °F 53 °F - ()
Cooling Degree Days 7    
Growing Degree Days 22 (Base 50)    
Moisture  
Dew Point 62 °F    
Average Humidity 70    
Maximum Humidity 94    
Minimum Humidity 40    
Precipitation  
Precipitation 0.12 in 0.21 in - ()
Sea Level Pressure  
Sea Level Pressure 30.05 in    
Wind  
Wind Speed 2 mph ()    
Max Wind Speed 7 mph    
Max Gust Speed -    
Visibility 6.2 miles    
Events      
T = Trace of Precipitation, MM = Missing Value Source: Averaged Metar Reports

Daily Weather History Graph

Daily Weather History Graph

Search for Another Location

Airport or City:

Trip Planner

Search our weather history database for the weather conditions in past years. The results will help you decide how hot, cold, wet, or windy it might be!

Date:

Astronomy

Sep. 07, 2013 Rise Set
Actual Time 6:52 AM CEST 7:51 PM CEST
Civil Twilight 6:21 AM CEST 8:21 PM CEST
Nautical Twilight 5:45 AM CEST 8:57 PM CEST
Astronomical Twilight 5:06 AM CEST 9:35 PM CEST
Moon 8:58 AM CEST (9/7) 8:29 PM CEST (9/7)
Length of Visible Light 13h 59m
Length of Day
12h 58m
Waxing Crescent, 4% of the Moon is Illuminated
Sep 7
Waxing Crescent
Sep 12
First Quarter
Sep 19
Full
Sep 27
Last Quarter
Oct 5
New

Hourly Weather History & Observations

Time (CEST) Temp. Heat Index Dew Point Humidity Pressure Visibility Wind Dir Wind Speed Gust Speed Precip Events Conditions
12:00 AM 70 °F - 61 °F 65% 29.99 in - NNW 1.2 mph - -  
12:20 AM 66.2 °F - 60.8 °F 83% 30.01 in - Variable 1.2 mph - N/A   Clear
12:50 AM 66.2 °F - 60.8 °F 83% 30.01 in - Variable 2.3 mph - N/A   Clear
1:00 AM 69 °F - 61 °F 69% 30.00 in - North 2.3 mph - -  
1:20 AM 64.4 °F - 60.8 °F 88% 30.01 in 6.2 mi Variable 1.2 mph - N/A   Unknown
1:50 AM 66.2 °F - 60.8 °F 83% 30.04 in - Variable 1.2 mph - N/A   Clear
2:20 AM 64.4 °F - 60.8 °F 88% 30.04 in - Variable 2.3 mph - N/A   Clear
2:50 AM 64.4 °F - 60.8 °F 88% 30.04 in - Variable 1.2 mph - N/A   Clear
3:00 AM 67 °F - 60 °F 73% 30.01 in - NNW 2.3 mph - -  
3:20 AM 64.4 °F - 60.8 °F 88% 30.04 in 6.2 mi Variable 1.2 mph - N/A   Mostly Cloudy
3:50 AM 64.4 °F - 60.8 °F 88% 30.04 in 6.2 mi Variable 1.2 mph - N/A   Mostly Cloudy
4:00 AM 68 °F - 60 °F 69% 30.02 in - Calm Calm - -  
4:20 AM 64.4 °F - 60.8 °F 88% 30.04 in 6.2 mi North 2.3 mph - N/A   Overcast
4:50 AM 62.6 °F - 60.8 °F 94% 30.04 in 6.2 mi North 3.5 mph - N/A   Unknown
5:20 AM 62.6 °F - 60.8 °F 94% 30.04 in 6.2 mi Variable 2.3 mph - N/A   Partly Cloudy
5:50 AM 62.6 °F - 60.8 °F 94% 30.04 in 6.2 mi Variable 1.2 mph - N/A   Overcast
6:00 AM 67 °F - 61 °F 74% 30.04 in - NNW 2.3 mph - -  
6:20 AM 64.4 °F - 60.8 °F 88% 30.06 in 6.2 mi Variable 1.2 mph - N/A   Scattered Clouds
6:50 AM 62.6 °F - 60.8 °F 94% 30.06 in 6.2 mi North 3.5 mph - N/A   Scattered Clouds
7:00 AM 66 °F - 61 °F 79% 30.05 in - NNW 2.3 mph - -  
7:20 AM 64.4 °F - 60.8 °F 88% 30.06 in 6.2 mi Variable 2.3 mph - N/A   Scattered Clouds
7:50 AM 64.4 °F - 60.8 °F 88% 30.06 in 6.2 mi Variable 2.3 mph - N/A   Scattered Clouds
8:20 AM 66.2 °F - 60.8 °F 83% 30.06 in 6.2 mi Variable 1.2 mph - N/A   Scattered Clouds
8:50 AM 66.2 °F - 62.6 °F 88% 30.06 in 6.2 mi North 3.5 mph - N/A   Partly Cloudy
9:00 AM 70 °F - 60 °F 64% 30.06 in - North 1.2 mph - -  
9:20 AM 69.8 °F - 62.6 °F 78% 30.09 in 6.2 mi Variable 1.2 mph - N/A   Partly Cloudy
9:50 AM 73.4 °F - 62.6 °F 69% 30.09 in 6.2 mi Variable 1.2 mph - N/A   Partly Cloudy
10:00 AM 71 °F - 62 °F 67% 30.07 in - ESE 2.3 mph - -  
10:20 AM 71.6 °F - 62.6 °F 73% 30.09 in 6.2 mi South 3.5 mph - N/A   Partly Cloudy
10:50 AM 73.4 °F - 62.6 °F 69% 30.09 in 6.2 mi SSW 3.5 mph - N/A   Partly Cloudy
11:20 AM 75.2 °F - 62.6 °F 65% 30.06 in 6.2 mi South 3.5 mph - N/A   Partly Cloudy
11:50 AM 77.0 °F - 62.6 °F 61% 30.06 in 6.2 mi SSW 3.5 mph - N/A   Partly Cloudy
12:00 PM 75 °F - 63 °F 58% 30.05 in - SE 2.3 mph - -  
12:20 PM 78.8 °F - 62.6 °F 57% 30.06 in 6.2 mi South 5.8 mph - N/A   Partly Cloudy
12:50 PM 80.6 °F 81.8 °F 62.6 °F 54% 30.06 in 6.2 mi South 4.6 mph - N/A   Partly Cloudy
1:00 PM 77 °F - 63 °F 53% 30.04 in - ESE 3.5 mph - -  
1:20 PM 80.6 °F 82.3 °F 64.4 °F 58% 30.06 in 6.2 mi South 6.9 mph - N/A   Scattered Clouds
1:50 PM 80.6 °F 81.8 °F 62.6 °F 54% 30.06 in 6.2 mi South 6.9 mph - N/A   Scattered Clouds
2:20 PM 80.6 °F 81.8 °F 62.6 °F 54% 30.06 in 6.2 mi South 4.6 mph - N/A   Scattered Clouds
2:50 PM 82.4 °F 83.4 °F 62.6 °F 51% 30.04 in 6.2 mi South 5.8 mph - N/A   Scattered Clouds
3:00 PM 81 °F - 61 °F 41% 30.01 in - SSW 2.3 mph - -  
3:20 PM 82.4 °F 83.4 °F 62.6 °F 51% 30.04 in 6.2 mi SSW 5.8 mph - N/A   Scattered Clouds
3:50 PM 80.6 °F 82.3 °F 64.4 °F 58% 30.04 in 6.2 mi South 4.6 mph - N/A   Scattered Clouds
4:00 PM 81 °F - 61 °F 40% 30.01 in - SW 3.5 mph - -  
4:20 PM 78.8 °F - 64.4 °F 61% 30.04 in 6.2 mi SSE 4.6 mph - N/A   Scattered Clouds
4:50 PM 80.6 °F 82.3 °F 64.4 °F 58% 30.04 in 6.2 mi Variable 3.5 mph - N/A   Scattered Clouds
5:20 PM 80.6 °F 81.8 °F 62.6 °F 54% 30.04 in 6.2 mi Variable 3.5 mph - N/A   Scattered Clouds
5:50 PM 82.4 °F 83.9 °F 64.4 °F 54% 30.04 in 6.2 mi Variable 3.5 mph - N/A   Scattered Clouds
6:00 PM 80 °F - 63 °F 46% 30.01 in - ESE 5.8 mph - -  
6:20 PM 82.4 °F 83.9 °F 64.4 °F 54% 30.04 in 6.2 mi Variable 2.3 mph - N/A   Scattered Clouds
6:50 PM 77.0 °F - 60.8 °F 57% 30.04 in 6.2 mi NNE 4.6 mph - N/A   Scattered Clouds
7:00 PM 77 °F - 61 °F 48% 30.01 in - NNE 3.5 mph - -  
7:20 PM 77.0 °F - 60.8 °F 57% 30.04 in 6.2 mi NNE 4.6 mph - N/A   Partly Cloudy
7:50 PM 75.2 °F - 62.6 °F 65% 30.04 in 6.2 mi Variable 2.3 mph - N/A   Partly Cloudy
8:20 PM 73.4 °F - 62.6 °F 69% 30.06 in 6.2 mi Variable 1.2 mph - N/A   Partly Cloudy
8:50 PM 73.4 °F - 62.6 °F 69% 30.06 in 6.2 mi NNW 3.5 mph - N/A   Partly Cloudy
9:00 PM 73 °F - 62 °F 59% 30.04 in - North 3.5 mph - -  
9:20 PM 71.6 °F - 62.6 °F 73% 30.06 in 6.2 mi NW 3.5 mph - N/A   Partly Cloudy
9:50 PM 68.0 °F - 62.6 °F 83% 30.06 in 6.2 mi North 2.3 mph - N/A   Scattered Clouds
10:00 PM 72 °F - 61 °F 61% 30.04 in - North 3.5 mph - -  
10:20 PM 69.8 °F - 64.4 °F 83% 30.06 in 6.2 mi Variable 1.2 mph - N/A   Scattered Clouds
10:50 PM 71.6 °F - 64.4 °F 78% 30.06 in 6.2 mi SE 2.3 mph - N/A   Mostly Cloudy
11:20 PM 69.8 °F - 64.4 °F 83% 30.06 in 6.2 mi Variable 1.2 mph - N/A   Mostly Cloudy
11:50 PM 69.8 °F - 66.2 °F 88% 30.06 in 6.2 mi South 3.5 mph - N/A   Scattered Clouds